sat.trackr.live / text

‹ back to catalog

HYLAS 1

NORAD 37237 · 2010-065A

PAYLOAD ACTIVE UNKNOWN

§ Identity

Operator
Country
UK
Launch date
2010-11-26
Launch site
FRGUI
Launch vehicle
Mass (kg)
RCS (m²)
119.95

Purposes: comms

External: N2YO · Heavens-Above · Gunter

§ Orbital elements

Epoch: 2026-05-25T02:05:54.777120Z

Period
1,436.08 min
Inclination
5.5875°
Eccentricity
0.0001339
Mean motion
1.00272661 rev/d
Perigee alt
35,780.7 km
Apogee alt
35,792.0 km
Semi-major
42,164.5 km
B*
0.0000e+0
RAAN
73.2977°
Arg perigee
310.8732°
Mean anomaly
263.7890°
Rev number
665

§ Raw data

HYLAS 11 37237U 10065A   26145.08743955  .00000088  00000+0  00000+0 0  99972 37237   5.5875  73.2977 0001339 310.8732 263.7890  1.00272661  6656

JSON: /api/v1/satellites/37237 · /tle

For live sub-satellite position, see the globe view (requires WebGL).

§ Visibility from observer

Set your observer location to see the next 7 days of passes ≥ 10°. The values pass through the URL so the page stays shareable.

No JS? Fill the form by hand. The geolocation button needs JavaScript.